Погода в Пристанском

Россия / Омская область     54°27′56″N   74°20′45″E
темп.,
°C
ветер,
м/с
пор.,
м/с
влажн.,
%
обл.,
%
осадки,
мм/ч
давл.,
гПа
погр.,
м
19 сентября, вс
вс1900:00+8юз4874100 0.6 1005657
03:00+8юз598299 1.8 10031029
06:00+7зюз5886100 2.1 10021108
09:00+7зсз7108060 0.1 1004776
12:00+10з8105388 0.1 10061653
15:00+11з81039100 0.0 10062212
18:00+8з811505 0.0 10071368
21:00+5з71259100 0.0 1009912
20 сентября, пн
пн2000:00+5з8126982 0.0 10091044
03:00+4з8137594 0.1 10091186
06:00+4з81377100 0.1 10111143
09:00+4з71180100 0.3 10121073
12:00+6зсз81158100 0.5 10131683
15:00+7зсз8115699 0.2 10141602
18:00+5сз6107097 0.4 10161135
21:00+4зсз5107741 0.1 1017522
21 сентября, вт
вт2100:00+2зсз5893100 0.1 1018680
03:00+3сз5791100 0.1 1019697
06:00+3сз4896100 0.3 1020541
09:00+5сз577899 0.1 1021799
12:00+6сз6764100 0.4 10221302
15:00+7сз6756100 0.3 10221572
18:00+6сз576193 0.4 10231200
21:00+4сз376883 0.1 1023760
22 сентября, ср
ср2200:00+3зсз3674100 0.1 1023680
03:00+2зсз3775100 0.0 1023619
06:00+2зсз4672100 0.0 1023712
09:00+2зсз468097 0.1 1023632
12:00+5зсз4560100 0.1 10221175
15:00+7зсз5653100 0.0 10211416
18:00+7зсз265283 0.0 10211218
21:00+4юз226377 0.0 102124
23 сентября, чт
чт2300:00+4зсз236599 0.0 102157
03:00+3с2595100 0.1 1021376
06:00+2с3588100 0.1 1022241
09:00+3ссз3580100 0.0 1023542
12:00+5с4468100 0.2 10231034
15:00+6ссз5653100 0.1 10241522
18:00+5с676299 0.1 10251102
21:00+1с510785 0.1 1027460